SCP
0 0 0 0 0 0 0 0 0 0 0 0 0 0 0 0 0 0 0 0 0 0 0 0 0 0 0 0 0 0 0 0 0 0 0 0 0 0 0 0 0 0 0
0 0 0 0 0 0 0 0 0 0 0 0 0 0 1 0 0 0 0 0 0 0 0 0 0 0 0 0 0 0 0 0 0 0 0 0 0 0 0 0 0 0 0
0 0 0 0 0 0 0 0 0 0 1 0 1 1 0 0 0 0 0 0 0 0 0 0 0 0 0 0 0 0 0 0 0 0 0 0 0 0 0 0 0 0 0
1 1 0 1 0 0 0 1 1 1 1 1 1 1 0 0 0 0 0 0 0 0 0 0 0 0 0 0 0 0 0 1 0 1 0 0 0 0 0 0 0 0 0
1 1 1 1 0 1 1 1 1 1 2 1 0 0 0 0 0 0 0 0 0 0 0 0 0 0 0 0 0 0 0 0 1 1 0 0 0 0 0 0 0 0 0
1 1 1 1 0 1 1 1 1 1 1 0 0 0 0 0 0 0 0 0 0 0 0 0 0 0 0 0 0 0 0 0 0 0 0 0 0 0 0 0 0 0 0
0 0 1 0 1 1 1 1 0 0 0 0 0 0 0 1 1 0 0 0 0 0 0 0 0 0 0 0 0 0 0 0 0 0 0 0 0 1 0 0 0 0 0
0 1 0 0 0 0 0 0 0 0 0 0 0 1 1 1 0 0 1 0 0 0 0 0 0 0 0 0 0 0 0 0 0 0 0 0 0 0 0 0 0 0 0
0 1 0 0 0 0 0 0 0 0 0 0 1 1 1 1 1 1 0 0 0 0 0 0 0 0 0 0 0 0 0 0 0 0 -0 -0 0 0 0 0 0 0 0
1 0 0 1 1 1 0 0 0 0 0 0 0 1 1 0 0 0 0 0 0 0 0 0 0 0 0 0 0 0 0 0 0 0 0 0 -0 0 0 0 0 0 0
0 0 0 0 0 0 0 0 0 0 0 0 0 0 0 0 0 0 0 0 0 0 0 0 0 0 0 0 0 0 0 0 0 0 0 0 0 0 0 0 0 0 0
0 0 0 0 0 0 0 0 0 0 0 0 0 0 0 0 0 0 0 0 0 0 0 0 0 0 0 0 0 -0 0 0 -0 0 0 0 0 -0 -0 0 -0 0 0
0 0 0 0 0 0 0 0 0 0 0 0 0 0 0 0 0 0 0 0 0 0 0 0 0 -0 -0 0 0 0 0 -0 -0 0 0 0 0 -0 -0 -0 -0 0 0
0 0 0 0 0 0 0 0 0 0 0 0 0 0 0 0 0 0 0 0 0 0 0 0 0 -0 -0 0 0 0 0 0 -0 0 0 0 -0 -0 -0 0 0 0 0
0 0 0 0 0 0 0 0 0 0 0 0 0 0 0 0 0 0 0 0 0 0 0 0 0 0 0 0 0 0 0 0 0 0 0 0 0 -0 0 0 0 -0 -0
0 0 0 0 0 0 0 0 0 0 0 0 0 0 0 0 0 0 0 0 0 0 0 0 0 0 0 -0 0 -0 0 0 -0 -0 0 0 0 0 0 -0 -0 0 0
0 0 0 0 0 0 0 0 0 0 0 0 0 0 0 0 0 0 0 0 0 0 0 0 0 0 0 -0 0 0 0 0 0 0 0 0 0 0 -0 0 -0 0 0
0 0 0 0 0 0 0 0 0 0 0 0 0 0 0 0 0 0 0 0 0 0 0 0 0 0 0 0 0 0 0 0 0 0 0 0 -0 0 0 0 0 0 0
0 0 0 0 0 0 0 0 0 0 0 0 0 0 0 0 0 0 0 0 0 0 0 0 0 0 -0 0 0 0 0 0 0 0 0 0 -0 -0 0 0 0 0 -0
0 0 0 0 0 0 0 0 0 0 0 0 0 0 0 0 0 0 0 -0 -0 -0 0 0 0 -0 -0 0 0 0 0 0 0 0 0 0 -0 0 0 0 0 0 -0
0 0 0 0 0 0 0 0 0 0 0 0 0 0 0 0 0 0 0 -0 -0 0 0 0 0 -0 -0 0 0 0 0 0 0 0 0 0 -0 -0 0 0 0 0 0
0 0 0 0 0 0 0 0 0 0 0 0 0 0 0 0 0 0 0 0 0 0 0 -0 0 -0 0 0 0 0 0 0 0 0 0 0 -0 -0 0 0 0 0 0
0 0 0 0 0 0 0 0 0 0 0 0 0 0 0 0 0 0 0 0 0 0 0 0 0 0 0 0 0 0 0 0 0 0 0 0 0 -0 0 0 0 0 0
0 0 0 0 0 0 0 0 0 0 0 0 0 0 0 0 0 0 0 0 0 0 0 0 0 0 0 0 0 0 0 0 0 0 0 0 0 0 0 0 0 0 0
0 0 0 0 0 0 0 0 0 0 0 0 0 0 0 0 0 0 0 0 0 0 0 0 0 0 0 0 0 0 0 0 0 0 0 0 0 0 0 0 0 0 0
0 0 0 0 0 0 0 0 0 0 0 0 0 0 0 0 0 0 0 0 0 0 0 0 0 0 0 0 0 0 0 0 0 0 0 0 0 0 0 0 0 0 0
Wind_Speed_500mb
29 29 30 29 30 30 30 29 29 24 24 22 20 22 26 25 30 27 28 26 28 32 32 30 32 37 35 35 35 35 33 33 32 31 34 35 38 30 24 24 24 25 23
34 33 31 30 34 32 31 30 27 25 26 21 18 18 20 25 24 21 20 20 20 23 27 31 37 40 39 42 44 42 38 33 33 33 32 36 25 28 19 23 21 22 23
40 37 32 33 33 33 32 30 31 30 23 20 17 18 19 21 15 15 19 19 21 22 25 29 33 37 40 44 46 53 53 40 33 31 26 28 26 14 21 25 23 23 25
39 36 33 36 36 30 26 30 31 24 19 17 16 21 20 20 21 23 24 26 23 24 25 27 31 35 39 44 49 47 50 41 39 32 30 31 34 33 32 19 23 21 27
37 37 33 33 36 32 31 27 23 20 13 16 14 15 20 23 26 28 28 28 30 30 34 34 35 35 37 40 45 46 46 50 47 37 31 32 31 31 33 38 28 24 28
31 27 24 33 28 21 17 10 17 14 8 12 18 24 30 29 32 34 35 38 38 39 37 39 46 40 37 36 37 41 44 49 48 41 36 34 34 30 30 30 31 34 30
20 22 26 19 23 23 20 5 11 12 14 16 20 24 28 31 36 35 41 40 44 48 49 43 44 40 37 40 40 41 44 43 45 46 40 35 38 39 39 34 33 37 31
12 14 15 17 17 21 7 10 14 10 17 20 23 25 27 32 37 39 36 37 44 48 46 51 43 41 39 39 40 41 42 47 47 48 35 36 35 33 35 37 31 35 34
12 14 14 14 15 6 8 11 14 18 24 24 25 31 28 28 32 41 45 39 45 47 56 49 45 43 43 41 44 46 41 38 43 44 45 43 38 36 34 31 31 31 34
13 10 6 7 10 3 11 13 32 22 24 26 25 25 24 25 30 32 38 43 48 50 45 40 42 44 44 43 44 46 41 42 42 42 39 40 32 32 32 35 31 32 34
8 7 7 3 3 10 21 19 15 18 19 19 21 24 26 30 33 38 43 45 46 42 39 39 41 44 46 46 50 46 42 44 46 45 43 36 32 30 32 31 32 33 33
3 5 8 14 17 12 23 17 11 12 15 19 26 30 34 38 39 42 42 41 40 39 40 40 42 44 45 43 38 38 35 41 44 44 42 34 30 32 32 28 30 34 36
12 14 14 29 17 7 7 10 14 18 23 29 34 37 41 43 42 41 40 39 39 38 36 39 39 42 42 34 34 31 35 38 36 32 30 25 28 26 23 26 29 36 32
15 8 17 2 6 9 11 15 20 25 28 33 37 38 37 37 38 38 37 37 34 32 33 37 40 42 37 29 27 25 30 27 24 24 23 27 22 21 19 21 22 26 23
7 8 7 5 9 12 15 19 23 26 30 32 33 32 33 36 37 36 33 33 33 35 38 41 40 42 32 31 28 22 22 22 19 24 20 17 20 23 22 17 28 30 27
9 10 9 12 15 18 18 21 25 27 27 29 31 32 36 38 40 39 37 37 38 39 39 38 39 38 29 20 21 23 17 15 20 22 15 14 16 16 13 28 29 34 29
10 12 15 17 18 17 19 24 24 26 27 29 34 37 40 43 44 48 43 36 40 39 37 32 36 30 22 18 21 25 24 15 18 19 16 17 9 9 12 24 25 4 6
14 15 17 20 17 16 20 20 25 26 29 33 38 41 45 49 49 51 42 36 37 35 34 29 30 23 23 15 26 29 26 16 14 13 14 11 7 2 16 13 18 12 13
14 14 19 17 15 17 17 22 25 29 33 37 40 46 48 47 47 48 37 39 38 34 33 27 26 21 30 22 18 33 28 15 15 17 18 16 14 13 18 11 21 24 21
17 17 20 19 16 17 19 24 27 32 36 40 44 42 45 45 47 43 40 39 36 32 29 24 16 25 39 27 11 35 24 18 16 18 20 16 11 9 9 13 18 19 25
18 17 19 18 20 20 22 26 30 35 38 43 43 42 41 47 41 39 41 35 35 30 21 22 22 31 32 26 21 39 21 23 17 18 15 18 10 7 15 18 17 15 22
17 18 19 20 21 23 26 30 33 37 40 42 44 42 39 40 36 38 30 35 33 27 27 27 24 29 14 9 22 29 26 30 21 17 18 16 10 12 8 13 15 17 19
17 18 21 23 24 24 25 31 35 38 39 38 41 36 36 32 32 32 30 33 33 31 29 24 25 28 21 8 26 30 27 29 18 14 16 20 13 17 20 6 7 12 9
20 20 23 26 28 28 28 29 34 35 34 35 35 32 30 30 30 28 27 28 28 31 24 30 29 25 13 16 30 29 33 34 19 17 23 23 19 20 16 15 8 4 7
25 25 27 29 31 31 30 29 31 29 29 31 30 27 26 24 26 26 26 23 20 26 24 24 35 30 13 10 34 35 35 27 19 22 23 21 18 16 11 12 10 7 7
26 28 30 31 30 29 28 27 26 24 24 25 27 27 23 20 21 24 23 30 26 11 17 24 34 31 4 25 29 32 36 32 24 22 23 23 22 19 17 17 13 10 13
Wind_Direction_500mb
214 212 209 212 221 225 236 245 249 252 260 258 269 280 283 289 294 293 296 299 299 294 289 280 276 275 273 264 260 265 273 275 282 276 288 289 289 277 266 259 252 250 251
214 214 215 218 223 228 236 241 244 243 246 254 267 267 274 286 286 292 299 306 311 306 300 293 289 286 278 272 262 263 261 266 274 272 282 287 278 264 268 245 259 251 243
216 214 218 221 224 226 229 234 238 241 253 251 256 279 289 302 301 307 317 312 308 311 309 304 297 291 287 278 270 266 266 262 262 259 263 280 270 319 287 248 249 246 251
223 220 218 223 224 223 226 224 232 243 245 253 253 270 279 278 287 303 304 319 310 309 307 310 304 296 291 281 276 269 261 254 260 260 254 254 261 275 280 243 248 249 256
227 219 215 219 229 208 212 223 238 231 238 254 263 276 279 290 293 296 299 305 318 312 313 314 311 301 296 285 280 272 264 259 258 251 254 256 258 256 253 269 270 261 268
219 225 220 226 216 201 197 194 237 205 251 293 282 282 283 280 287 291 293 301 305 307 304 308 310 300 295 294 293 283 266 258 253 254 251 255 254 253 247 252 265 268 271
217 223 214 203 187 164 170 244 194 234 275 266 262 270 277 278 286 291 295 291 304 303 302 304 305 299 294 293 289 288 276 257 251 250 249 251 248 250 250 255 264 272 273
166 158 161 172 176 166 216 218 217 243 271 272 277 281 279 286 284 294 285 292 295 302 300 305 302 298 297 294 288 281 278 261 251 251 247 248 253 250 248 254 259 274 272
164 158 158 168 183 200 305 286 265 280 280 289 289 297 294 292 290 288 295 298 300 296 299 295 299 297 293 292 289 285 273 259 255 251 239 250 254 250 250 251 256 266 278
168 168 170 184 186 256 348 313 286 275 288 301 301 300 299 305 304 305 306 304 301 297 294 295 297 295 294 289 285 281 270 250 246 242 243 254 252 246 245 255 256 261 269
192 180 156 131 18 354 319 285 289 308 308 311 314 313 309 307 307 310 308 306 301 293 292 295 295 297 292 285 282 277 261 241 246 240 242 245 247 245 251 249 256 262 265
121 106 109 83 27 21 290 306 324 333 327 325 319 318 313 310 312 311 310 307 301 296 292 293 295 293 288 292 289 269 249 240 235 232 231 240 243 254 256 254 259 265 260
92 87 48 344 326 290 330 348 347 336 325 320 317 313 310 311 314 313 312 312 306 297 295 294 295 293 287 294 282 265 253 241 231 227 227 228 249 247 247 262 271 270 266
114 6 332 265 337 25 360 333 329 329 324 323 318 316 317 320 322 319 314 314 309 303 298 299 295 294 288 295 286 266 253 239 230 216 217 235 239 250 259 275 282 292 274
9 37 359 2 349 341 331 328 331 329 325 326 327 328 330 327 324 323 318 318 317 312 304 299 299 294 286 305 276 261 249 234 215 211 229 235 240 239 267 293 304 294 272
7 23 6 343 334 327 329 331 327 326 331 335 335 334 332 326 323 320 318 314 313 311 308 298 298 297 288 297 256 244 247 247 223 211 217 223 223 252 286 331 303 288 273
2 348 338 334 328 329 331 329 334 332 334 336 338 336 332 328 327 326 311 311 313 311 309 298 302 303 305 273 259 237 226 250 198 214 208 196 203 253 315 322 321 66 170
332 331 331 325 318 322 328 333 335 336 334 335 334 331 330 329 324 325 315 317 315 313 310 297 317 315 323 285 247 234 218 215 205 191 183 188 166 157 4 82 30 81 117
312 315 320 318 313 324 326 330 334 335 334 331 330 328 326 329 330 328 326 326 322 319 312 309 326 329 333 258 269 204 204 205 174 159 143 135 140 55 135 46 61 81 95
302 308 317 316 307 315 314 321 325 329 331 330 325 323 324 332 332 328 332 326 327 324 322 320 329 336 341 285 190 182 181 187 166 161 159 150 147 39 43 41 69 89 96
295 301 309 305 299 295 302 314 323 326 325 327 325 327 330 337 333 334 336 336 331 334 344 347 355 351 342 320 176 178 181 173 162 169 156 165 148 125 26 64 72 104 119
303 299 300 298 303 300 303 312 321 327 325 325 326 330 335 340 342 341 343 344 354 355 359 357 357 5 326 355 170 176 167 167 181 162 150 166 149 156 109 124 77 81 128
330 306 296 298 300 305 305 309 318 324 324 327 328 332 336 338 344 345 343 348 351 355 355 359 2 5 313 76 162 176 176 170 150 174 162 155 141 139 152 142 128 89 56
320 315 301 299 300 302 304 308 314 318 320 327 330 331 335 336 344 347 341 343 347 349 13 7 352 354 358 107 160 171 173 169 171 186 170 167 151 142 164 171 168 117 151
308 299 298 299 300 301 299 304 312 314 319 325 328 332 329 327 336 336 332 340 341 354 7 3 5 10 8 149 159 159 168 166 182 171 164 173 174 179 174 172 177 180 165
299 298 292 293 299 301 298 303 305 306 311 325 329 324 329 321 327 328 332 324 340 5 354 9 13 16 48 162 171 178 176 171 174 176 189 203 196 199 196 193 195 196 194
Wind_Speed_850mb
29 29 30 29 30 30 30 29 29 24 24 22 20 22 26 25 30 27 28 26 28 32 32 30 32 37 35 35 35 35 33 33 32 31 34 35 38 30 24 24 24 25 23
34 33 31 30 34 32 31 30 27 25 26 21 18 18 20 25 24 21 20 20 20 23 27 31 37 40 39 42 44 42 38 33 33 33 32 36 25 28 19 23 21 22 23
40 37 32 33 33 33 32 30 31 30 23 20 17 18 19 21 15 15 19 19 21 22 25 29 33 37 40 44 46 53 53 40 33 31 26 28 26 14 21 25 23 23 25
39 36 33 36 36 30 26 30 31 24 19 17 16 21 20 20 21 23 24 26 23 24 25 27 31 35 39 44 49 47 50 41 39 32 30 31 34 33 32 19 23 21 27
37 37 33 33 36 32 31 27 23 20 13 16 14 15 20 23 26 28 28 28 30 30 34 34 35 35 37 40 45 46 46 50 47 37 31 32 31 31 33 38 28 24 28
31 27 24 33 28 21 17 10 17 14 8 12 18 24 30 29 32 34 35 38 38 39 37 39 46 40 37 36 37 41 44 49 48 41 36 34 34 30 30 30 31 34 30
20 22 26 19 23 23 20 5 11 12 14 16 20 24 28 31 36 35 41 40 44 48 49 43 44 40 37 40 40 41 44 43 45 46 40 35 38 39 39 34 33 37 31
12 14 15 17 17 21 7 10 14 10 17 20 23 25 27 32 37 39 36 37 44 48 46 51 43 41 39 39 40 41 42 47 47 48 35 36 35 33 35 37 31 35 34
12 14 14 14 15 6 8 11 14 18 24 24 25 31 28 28 32 41 45 39 45 47 56 49 45 43 43 41 44 46 41 38 43 44 45 43 38 36 34 31 31 31 34
13 10 6 7 10 3 11 13 32 22 24 26 25 25 24 25 30 32 38 43 48 50 45 40 42 44 44 43 44 46 41 42 42 42 39 40 32 32 32 35 31 32 34
8 7 7 3 3 10 21 19 15 18 19 19 21 24 26 30 33 38 43 45 46 42 39 39 41 44 46 46 50 46 42 44 46 45 43 36 32 30 32 31 32 33 33
3 5 8 14 17 12 23 17 11 12 15 19 26 30 34 38 39 42 42 41 40 39 40 40 42 44 45 43 38 38 35 41 44 44 42 34 30 32 32 28 30 34 36
12 14 14 29 17 7 7 10 14 18 23 29 34 37 41 43 42 41 40 39 39 38 36 39 39 42 42 34 34 31 35 38 36 32 30 25 28 26 23 26 29 36 32
15 8 17 2 6 9 11 15 20 25 28 33 37 38 37 37 38 38 37 37 34 32 33 37 40 42 37 29 27 25 30 27 24 24 23 27 22 21 19 21 22 26 23
7 8 7 5 9 12 15 19 23 26 30 32 33 32 33 36 37 36 33 33 33 35 38 41 40 42 32 31 28 22 22 22 19 24 20 17 20 23 22 17 28 30 27
9 10 9 12 15 18 18 21 25 27 27 29 31 32 36 38 40 39 37 37 38 39 39 38 39 38 29 20 21 23 17 15 20 22 15 14 16 16 13 28 29 34 29
10 12 15 17 18 17 19 24 24 26 27 29 34 37 40 43 44 48 43 36 40 39 37 32 36 30 22 18 21 25 24 15 18 19 16 17 9 9 12 24 25 4 6
14 15 17 20 17 16 20 20 25 26 29 33 38 41 45 49 49 51 42 36 37 35 34 29 30 23 23 15 26 29 26 16 14 13 14 11 7 2 16 13 18 12 13
14 14 19 17 15 17 17 22 25 29 33 37 40 46 48 47 47 48 37 39 38 34 33 27 26 21 30 22 18 33 28 15 15 17 18 16 14 13 18 11 21 24 21
17 17 20 19 16 17 19 24 27 32 36 40 44 42 45 45 47 43 40 39 36 32 29 24 16 25 39 27 11 35 24 18 16 18 20 16 11 9 9 13 18 19 25
18 17 19 18 20 20 22 26 30 35 38 43 43 42 41 47 41 39 41 35 35 30 21 22 22 31 32 26 21 39 21 23 17 18 15 18 10 7 15 18 17 15 22
17 18 19 20 21 23 26 30 33 37 40 42 44 42 39 40 36 38 30 35 33 27 27 27 24 29 14 9 22 29 26 30 21 17 18 16 10 12 8 13 15 17 19
17 18 21 23 24 24 25 31 35 38 39 38 41 36 36 32 32 32 30 33 33 31 29 24 25 28 21 8 26 30 27 29 18 14 16 20 13 17 20 6 7 12 9
20 20 23 26 28 28 28 29 34 35 34 35 35 32 30 30 30 28 27 28 28 31 24 30 29 25 13 16 30 29 33 34 19 17 23 23 19 20 16 15 8 4 7
25 25 27 29 31 31 30 29 31 29 29 31 30 27 26 24 26 26 26 23 20 26 24 24 35 30 13 10 34 35 35 27 19 22 23 21 18 16 11 12 10 7 7
26 28 30 31 30 29 28 27 26 24 24 25 27 27 23 20 21 24 23 30 26 11 17 24 34 31 4 25 29 32 36 32 24 22 23 23 22 19 17 17 13 10 13
Wind_Direction_850mb
214 212 209 212 221 225 236 245 249 252 260 258 269 280 283 289 294 293 296 299 299 294 289 280 276 275 273 264 260 265 273 275 282 276 288 289 289 277 266 259 252 250 251
214 214 215 218 223 228 236 241 244 243 246 254 267 267 274 286 286 292 299 306 311 306 300 293 289 286 278 272 262 263 261 266 274 272 282 287 278 264 268 245 259 251 243
216 214 218 221 224 226 229 234 238 241 253 251 256 279 289 302 301 307 317 312 308 311 309 304 297 291 287 278 270 266 266 262 262 259 263 280 270 319 287 248 249 246 251
223 220 218 223 224 223 226 224 232 243 245 253 253 270 279 278 287 303 304 319 310 309 307 310 304 296 291 281 276 269 261 254 260 260 254 254 261 275 280 243 248 249 256
227 219 215 219 229 208 212 223 238 231 238 254 263 276 279 290 293 296 299 305 318 312 313 314 311 301 296 285 280 272 264 259 258 251 254 256 258 256 253 269 270 261 268
219 225 220 226 216 201 197 194 237 205 251 293 282 282 283 280 287 291 293 301 305 307 304 308 310 300 295 294 293 283 266 258 253 254 251 255 254 253 247 252 265 268 271
217 223 214 203 187 164 170 244 194 234 275 266 262 270 277 278 286 291 295 291 304 303 302 304 305 299 294 293 289 288 276 257 251 250 249 251 248 250 250 255 264 272 273
166 158 161 172 176 166 216 218 217 243 271 272 277 281 279 286 284 294 285 292 295 302 300 305 302 298 297 294 288 281 278 261 251 251 247 248 253 250 248 254 259 274 272
164 158 158 168 183 200 305 286 265 280 280 289 289 297 294 292 290 288 295 298 300 296 299 295 299 297 293 292 289 285 273 259 255 251 239 250 254 250 250 251 256 266 278
168 168 170 184 186 256 348 313 286 275 288 301 301 300 299 305 304 305 306 304 301 297 294 295 297 295 294 289 285 281 270 250 246 242 243 254 252 246 245 255 256 261 269
192 180 156 131 18 354 319 285 289 308 308 311 314 313 309 307 307 310 308 306 301 293 292 295 295 297 292 285 282 277 261 241 246 240 242 245 247 245 251 249 256 262 265
121 106 109 83 27 21 290 306 324 333 327 325 319 318 313 310 312 311 310 307 301 296 292 293 295 293 288 292 289 269 249 240 235 232 231 240 243 254 256 254 259 265 260
92 87 48 344 326 290 330 348 347 336 325 320 317 313 310 311 314 313 312 312 306 297 295 294 295 293 287 294 282 265 253 241 231 227 227 228 249 247 247 262 271 270 266
114 6 332 265 337 25 360 333 329 329 324 323 318 316 317 320 322 319 314 314 309 303 298 299 295 294 288 295 286 266 253 239 230 216 217 235 239 250 259 275 282 292 274
9 37 359 2 349 341 331 328 331 329 325 326 327 328 330 327 324 323 318 318 317 312 304 299 299 294 286 305 276 261 249 234 215 211 229 235 240 239 267 293 304 294 272
7 23 6 343 334 327 329 331 327 326 331 335 335 334 332 326 323 320 318 314 313 311 308 298 298 297 288 297 256 244 247 247 223 211 217 223 223 252 286 331 303 288 273
2 348 338 334 328 329 331 329 334 332 334 336 338 336 332 328 327 326 311 311 313 311 309 298 302 303 305 273 259 237 226 250 198 214 208 196 203 253 315 322 321 66 170
332 331 331 325 318 322 328 333 335 336 334 335 334 331 330 329 324 325 315 317 315 313 310 297 317 315 323 285 247 234 218 215 205 191 183 188 166 157 4 82 30 81 117
312 315 320 318 313 324 326 330 334 335 334 331 330 328 326 329 330 328 326 326 322 319 312 309 326 329 333 258 269 204 204 205 174 159 143 135 140 55 135 46 61 81 95
302 308 317 316 307 315 314 321 325 329 331 330 325 323 324 332 332 328 332 326 327 324 322 320 329 336 341 285 190 182 181 187 166 161 159 150 147 39 43 41 69 89 96
295 301 309 305 299 295 302 314 323 326 325 327 325 327 330 337 333 334 336 336 331 334 344 347 355 351 342 320 176 178 181 173 162 169 156 165 148 125 26 64 72 104 119
303 299 300 298 303 300 303 312 321 327 325 325 326 330 335 340 342 341 343 344 354 355 359 357 357 5 326 355 170 176 167 167 181 162 150 166 149 156 109 124 77 81 128
330 306 296 298 300 305 305 309 318 324 324 327 328 332 336 338 344 345 343 348 351 355 355 359 2 5 313 76 162 176 176 170 150 174 162 155 141 139 152 142 128 89 56
320 315 301 299 300 302 304 308 314 318 320 327 330 331 335 336 344 347 341 343 347 349 13 7 352 354 358 107 160 171 173 169 171 186 170 167 151 142 164 171 168 117 151
308 299 298 299 300 301 299 304 312 314 319 325 328 332 329 327 336 336 332 340 341 354 7 3 5 10 8 149 159 159 168 166 182 171 164 173 174 179 174 172 177 180 165
299 298 292 293 299 301 298 303 305 306 311 325 329 324 329 321 327 328 332 324 340 5 354 9 13 16 48 162 171 178 176 171 174 176 189 203 196 199 196 193 195 196 194